Retour au catalogue

KHORS NO. 2

ActifMilitaireSSO
NORAD 57196·PAYLOAD·🇷🇺 Russia
Ce nom de satellite n'a pas encore été confirmé par des sources officielles.

Lancé Jun 27, 2023 depuis Vostochny Cosmodrome

Loading…

Prochains Passages (prochaines 24 heures)

TLE

FraisSource: Space-Track

Époque: Sep 14, 2026, 12:41 UTC

1 57196U 23091AG  26257.52887228  .00011076  00000-0  33985-3 0  9993
2 57196  97.4999 325.8655 0008824 122.4234 237.7863 15.33887570178213

Suivez KHORS NO. 2 en temps réel avec AllMySat

Download on the App Store